Time,TemperatureF,DewpointF,PressureIn,WindDirection,WindDirectionDegrees,WindSpeedMPH,WindSpeedGustMPH,Humidity,HourlyPrecipIn,Conditions,Clouds,dailyrainin,SoftwareType,DateUTC
2013-02-12 00:01:00,27.0,24.0,-100.00,NE,35,0.0,1.0,88,-99.99,,,-99.99,,2013-02-12 06:01:00,
2013-02-12 00:12:00,28.0,24.0,-100.00,SSE,160,0.0,0.0,86,-99.99,,,-99.99,,2013-02-12 06:12:00,
2013-02-12 00:21:00,28.0,24.0,-100.00,SSE,160,0.0,0.0,86,-99.99,,,-99.99,,2013-02-12 06:21:00,
2013-02-12 00:32:00,27.0,24.0,-100.00,SE,145,0.0,1.0,88,-99.99,,,-99.99,,2013-02-12 06:32:00,
2013-02-12 00:42:00,27.0,24.0,-100.00,SE,140,0.0,1.0,90,-99.99,,,-99.99,,2013-02-12 06:42:00,
2013-02-12 00:51:00,27.0,24.0,-100.00,SE,140,0.0,1.0,90,-99.99,,,-99.99,,2013-02-12 06:51:00,
2013-02-12 01:01:00,27.0,24.0,-100.00,NE,45,0.0,1.0,88,-99.99,,,-99.99,,2013-02-12 07:01:00,
2013-02-12 01:11:00,27.0,24.0,-100.00,NNE,30,0.0,0.0,89,-99.99,,,-99.99,,2013-02-12 07:11:00,
2013-02-12 01:21:00,27.0,24.0,-100.00,NNE,30,0.0,0.0,89,-99.99,,,-99.99,,2013-02-12 07:21:00,
2013-02-12 01:31:00,26.0,23.0,-100.00,NE,45,0.0,0.0,89,-99.99,,,-99.99,,2013-02-12 07:31:00,
2013-02-12 01:42:00,26.0,24.0,-100.00,SE,130,0.0,1.0,89,-99.99,,,-99.99,,2013-02-12 07:42:00,
2013-02-12 01:51:00,26.0,24.0,-100.00,SE,130,0.0,1.0,89,-99.99,,,-99.99,,2013-02-12 07:51:00,
2013-02-12 02:01:00,26.0,23.0,-100.00,NE,35,0.0,1.0,90,-99.99,,,-99.99,,2013-02-12 08:01:00,
2013-02-12 02:11:00,26.0,23.0,-100.00,South,185,0.0,0.0,91,-99.99,,,-99.99,,2013-02-12 08:11:00,
2013-02-12 02:21:00,26.0,23.0,-100.00,South,185,0.0,0.0,91,-99.99,,,-99.99,,2013-02-12 08:21:00,
2013-02-12 02:32:00,25.0,23.0,-100.00,SSE,155,0.0,0.0,92,-99.99,,,-99.99,,2013-02-12 08:32:00,
2013-02-12 02:41:00,25.0,23.0,-100.00,NE,55,0.0,0.0,92,-99.99,,,-99.99,,2013-02-12 08:41:00,
2013-02-12 02:52:00,25.0,23.0,-100.00,NE,55,0.0,0.0,92,-99.99,,,-99.99,,2013-02-12 08:52:00,
2013-02-12 03:01:00,25.0,23.0,-100.00,NE,50,0.0,1.0,92,-99.99,,,-99.99,,2013-02-12 09:01:00,
2013-02-12 03:11:00,24.0,22.0,-100.00,ENE,65,0.0,0.0,91,-99.99,,,-99.99,,2013-02-12 09:11:00,
2013-02-12 03:21:00,24.0,22.0,-100.00,ENE,65,0.0,0.0,91,-99.99,,,-99.99,,2013-02-12 09:21:00,
2013-02-12 03:32:00,25.0,23.0,-100.00,SSW,200,0.0,1.0,91,-99.99,,,-99.99,,2013-02-12 09:32:00,
2013-02-12 03:42:00,24.0,22.0,-100.00,SE,125,0.0,0.0,91,-99.99,,,-99.99,,2013-02-12 09:42:00,
2013-02-12 03:51:00,24.0,22.0,-100.00,SE,125,0.0,0.0,91,-99.99,,,-99.99,,2013-02-12 09:51:00,
2013-02-12 04:01:00,24.0,21.0,-100.00,SSE,150,0.0,1.0,91,-99.99,,,-99.99,,2013-02-12 10:01:00,
2013-02-12 07:32:00,23.0,21.0,-100.00,South,170,0.0,1.0,91,-99.99,,,-99.99,,2013-02-12 13:32:00,
2013-02-12 07:42:00,23.0,21.0,-100.00,South,170,0.0,1.0,91,-99.99,,,-99.99,,2013-02-12 13:42:00,
2013-02-12 07:51:00,23.0,21.0,-100.00,South,170,0.0,1.0,91,-99.99,,,-99.99,,2013-02-12 13:51:00,
2013-02-12 08:01:00,23.0,21.0,-100.00,North,355,0.0,1.0,91,-99.99,,,-99.99,,2013-02-12 14:01:00,
2013-02-12 08:12:00,24.0,22.0,-100.00,NE,35,0.0,1.0,92,-99.99,,,-99.99,,2013-02-12 14:12:00,
2013-02-12 08:21:00,24.0,22.0,-100.00,NE,35,0.0,1.0,92,-99.99,,,-99.99,,2013-02-12 14:21:00,
2013-02-12 08:32:00,24.0,22.0,-100.00,SE,135,0.0,1.0,90,-99.99,,,-99.99,,2013-02-12 14:32:00,
2013-02-12 08:42:00,24.0,22.0,-100.00,SE,130,0.0,1.0,90,-99.99,,,-99.99,,2013-02-12 14:42:00,
2013-02-12 08:52:00,24.0,22.0,-100.00,SE,130,0.0,1.0,90,-99.99,,,-99.99,,2013-02-12 14:52:00,
2013-02-12 09:02:00,26.0,23.0,-100.00,SSE,150,0.0,1.0,90,-99.99,,,-99.99,,2013-02-12 15:02:00,
2013-02-12 09:11:00,26.0,23.0,-100.00,East,80,0.0,1.0,89,-99.99,,,-99.99,,2013-02-12 15:11:00,
2013-02-12 09:21:00,26.0,23.0,-100.00,East,80,0.0,1.0,89,-99.99,,,-99.99,,2013-02-12 15:21:00,
2013-02-12 09:32:00,27.0,24.0,-100.00,East,85,0.0,1.0,87,-99.99,,,-99.99,,2013-02-12 15:32:00,
2013-02-12 09:42:00,28.0,24.0,-100.00,East,85,0.0,1.0,86,-99.99,,,-99.99,,2013-02-12 15:42:00,
2013-02-12 09:52:00,28.0,24.0,-100.00,East,85,0.0,1.0,86,-99.99,,,-99.99,,2013-02-12 15:52:00,
2013-02-12 10:01:00,31.0,26.0,-100.00,South,175,0.0,1.0,83,-99.99,,,-99.99,,2013-02-12 16:01:00,
2013-02-12 10:11:00,31.0,26.0,-100.00,SSW,195,0.0,1.0,81,-99.99,,,-99.99,,2013-02-12 16:11:00,
2013-02-12 10:42:00,34.0,27.0,-100.00,ESE,115,0.0,1.0,74,-99.99,,,-99.99,,2013-02-12 16:42:00,
2013-02-12 10:51:00,36.0,28.0,-100.00,NE,50,0.0,1.0,72,-99.99,,,-99.99,,2013-02-12 16:51:00,
2013-02-12 11:01:00,36.0,28.0,-100.00,NE,50,0.0,1.0,72,-99.99,,,-99.99,,2013-02-12 17:01:00,
2013-02-12 11:12:00,38.0,29.0,-100.00,NW,305,0.0,1.0,71,-99.99,,,-99.99,,2013-02-12 17:12:00,
2013-02-12 11:21:00,38.0,29.0,-100.00,NW,305,0.0,1.0,71,-99.99,,,-99.99,,2013-02-12 17:21:00,
2013-02-12 11:32:00,39.0,28.0,-100.00,West,275,0.0,1.0,66,-99.99,,,-99.99,,2013-02-12 17:32:00,
2013-02-12 11:42:00,40.0,29.0,-100.00,West,275,0.0,1.0,66,-99.99,,,-99.99,,2013-02-12 17:42:00,
2013-02-12 11:52:00,40.0,29.0,-100.00,West,275,0.0,1.0,66,-99.99,,,-99.99,,2013-02-12 17:52:00,
2013-02-12 12:01:00,41.0,29.0,-100.00,ESE,120,0.0,1.0,64,-99.99,,,-99.99,,2013-02-12 18:01:00,
2013-02-12 12:11:00,42.0,29.0,-100.00,SSE,165,0.0,1.0,61,-99.99,,,-99.99,,2013-02-12 18:11:00,
2013-02-12 12:23:00,42.0,29.0,-100.00,SSE,165,0.0,1.0,61,-99.99,,,-99.99,,2013-02-12 18:23:00,
2013-02-12 12:32:00,43.0,29.0,-100.00,SE,125,0.0,1.0,57,-99.99,,,-99.99,,2013-02-12 18:32:00,
2013-02-12 12:41:00,44.0,29.0,-100.00,East,100,0.0,1.0,55,-99.99,,,-99.99,,2013-02-12 18:41:00,
2013-02-12 12:51:00,44.0,29.0,-100.00,East,100,0.0,1.0,55,-99.99,,,-99.99,,2013-02-12 18:51:00,
2013-02-12 13:02:00,44.0,30.0,-100.00,NW,305,0.0,1.0,59,-99.99,,,-99.99,,2013-02-12 19:02:00,
2013-02-12 13:11:00,44.0,30.0,-100.00,West,275,1.0,1.0,58,-99.99,,,-99.99,,2013-02-12 19:11:00,
2013-02-12 13:21:00,44.0,30.0,-100.00,West,275,1.0,1.0,58,-99.99,,,-99.99,,2013-02-12 19:21:00,
2013-02-12 13:30:00,45.0,27.0,-100.00,WNW,285,1.0,1.0,50,-99.99,,,-99.99,,2013-02-12 19:30:00,
2013-02-12 13:31:00,45.0,29.0,-100.00,West,265,1.0,1.0,54,-99.99,,,-99.99,,2013-02-12 19:31:00,
2013-02-12 13:41:00,44.0,28.0,-100.00,West,260,1.0,1.0,52,-99.99,,,-99.99,,2013-02-12 19:41:00,
2013-02-12 13:51:00,44.0,28.0,-100.00,West,260,1.0,1.0,52,-99.99,,,-99.99,,2013-02-12 19:51:00,
2013-02-12 14:01:00,45.0,28.0,-100.00,WSW,250,1.0,1.0,51,-99.99,,,-99.99,,2013-02-12 20:01:00,
2013-02-12 14:11:00,45.0,27.0,-100.00,WNW,285,1.0,1.0,50,-99.99,,,-99.99,,2013-02-12 20:11:00,
2013-02-12 14:21:00,45.0,27.0,-100.00,WNW,285,1.0,1.0,50,-99.99,,,-99.99,,2013-02-12 20:21:00,
2013-02-12 14:42:00,45.0,26.0,-100.00,North,0,1.0,1.0,48,-99.99,,,-99.99,,2013-02-12 20:42:00,
2013-02-12 14:52:00,45.0,26.0,-100.00,North,0,1.0,1.0,48,-99.99,,,-99.99,,2013-02-12 20:52:00,
2013-02-12 15:01:00,45.0,27.0,-100.00,North,355,0.0,1.0,49,-99.99,,,-99.99,,2013-02-12 21:01:00,
2013-02-12 15:11:00,45.0,25.0,-100.00,NNE,25,1.0,1.0,46,-99.99,,,-99.99,,2013-02-12 21:11:00,
2013-02-12 15:21:00,45.0,25.0,-100.00,NNE,25,1.0,1.0,46,-99.99,,,-99.99,,2013-02-12 21:21:00,
2013-02-12 15:31:00,45.0,27.0,-100.00,North,350,1.0,1.0,49,-99.99,,,-99.99,,2013-02-12 21:31:00,
2013-02-12 15:42:00,44.0,27.0,-100.00,North,0,1.0,1.0,51,-99.99,,,-99.99,,2013-02-12 21:42:00,
2013-02-12 15:51:00,44.0,27.0,-100.00,North,0,1.0,1.0,51,-99.99,,,-99.99,,2013-02-12 21:51:00,
2013-02-12 16:01:00,44.0,28.0,-100.00,NNW,330,1.0,1.0,52,-99.99,,,-99.99,,2013-02-12 22:01:00,
2013-02-12 16:12:00,44.0,28.0,-100.00,NW,320,1.0,1.0,52,-99.99,,,-99.99,,2013-02-12 22:12:00,
2013-02-12 16:21:00,44.0,28.0,-100.00,NW,320,1.0,1.0,52,-99.99,,,-99.99,,2013-02-12 22:21:00,
2013-02-12 16:32:00,44.0,29.0,-100.00,NNW,345,1.0,1.0,55,-99.99,,,-99.99,,2013-02-12 22:32:00,
2013-02-12 16:42:00,44.0,28.0,-100.00,North,0,1.0,1.0,53,-99.99,,,-99.99,,2013-02-12 22:42:00,
2013-02-12 16:51:00,44.0,28.0,-100.00,North,0,1.0,1.0,53,-99.99,,,-99.99,,2013-02-12 22:51:00,
2013-02-12 17:01:00,43.0,28.0,-100.00,NNE,25,1.0,1.0,55,-99.99,,,-99.99,,2013-02-12 23:01:00,
2013-02-12 17:11:00,43.0,28.0,-100.00,NE,40,1.0,1.0,54,-99.99,,,-99.99,,2013-02-12 23:11:00,
2013-02-12 17:21:00,43.0,28.0,-100.00,NE,40,1.0,1.0,54,-99.99,,,-99.99,,2013-02-12 23:21:00,
2013-02-12 17:32:00,43.0,28.0,-100.00,NNE,25,1.0,2.0,55,-99.99,,,-99.99,,2013-02-12 23:32:00,
2013-02-12 17:42:00,43.0,28.0,-100.00,North,0,1.0,1.0,55,-99.99,,,-99.99,,2013-02-12 23:42:00,
2013-02-12 17:52:00,43.0,28.0,-100.00,North,0,1.0,1.0,55,-99.99,,,-99.99,,2013-02-12 23:52:00,
2013-02-12 18:02:00,43.0,28.0,-100.00,North,355,0.0,1.0,56,-99.99,,,-99.99,,2013-02-13 00:02:00,
2013-02-12 18:11:00,42.0,28.0,-100.00,NW,320,0.0,1.0,57,-99.99,,,-99.99,,2013-02-13 00:11:00,
2013-02-12 18:21:00,42.0,28.0,-100.00,NW,320,0.0,1.0,57,-99.99,,,-99.99,,2013-02-13 00:21:00,
2013-02-12 18:32:00,42.0,28.0,-100.00,NNE,25,1.0,1.0,58,-99.99,,,-99.99,,2013-02-13 00:32:00,
2013-02-12 18:42:00,42.0,30.0,-100.00,NE,40,1.0,2.0,64,-99.99,,,-99.99,,2013-02-13 00:42:00,
2013-02-12 18:52:00,42.0,30.0,-100.00,NE,40,1.0,2.0,64,-99.99,,,-99.99,,2013-02-13 00:52:00,
2013-02-12 19:01:00,39.0,32.0,-100.00,NNE,15,1.0,1.0,75,-99.99,,,-99.99,,2013-02-13 01:01:00,
2013-02-12 19:11:00,38.0,33.0,-100.00,NNE,25,1.0,1.0,80,-99.99,,,-99.99,,2013-02-13 01:11:00,
2013-02-12 19:21:00,38.0,33.0,-100.00,NNE,25,1.0,1.0,80,-99.99,,,-99.99,,2013-02-13 01:21:00,
2013-02-12 19:31:00,36.0,33.0,-100.00,North,0,1.0,1.0,87,-99.99,,,-99.99,,2013-02-13 01:31:00,
2013-02-12 19:42:00,36.0,33.0,-100.00,NNE,15,1.0,1.0,89,-99.99,,,-99.99,,2013-02-13 01:42:00,
2013-02-12 19:51:00,35.0,33.0,-100.00,NNW,340,1.0,1.0,92,-99.99,,,-99.99,,2013-02-13 01:51:00,
2013-02-12 20:01:00,35.0,33.0,-100.00,NNW,340,1.0,1.0,92,-99.99,,,-99.99,,2013-02-13 02:01:00,
2013-02-12 20:11:00,34.0,33.0,-100.00,NW,315,0.0,1.0,94,-99.99,,,-99.99,,2013-02-13 02:11:00,
2013-02-12 20:22:00,34.0,33.0,-100.00,NW,315,0.0,1.0,94,-99.99,,,-99.99,,2013-02-13 02:22:00,
2013-02-12 20:31:00,34.0,33.0,-100.00,NNW,335,1.0,1.0,95,-99.99,,,-99.99,,2013-02-13 02:31:00,
2013-02-12 20:41:00,34.0,33.0,-100.00,NW,320,1.0,1.0,95,-99.99,,,-99.99,,2013-02-13 02:41:00,
2013-02-12 20:52:00,34.0,33.0,-100.00,NW,320,1.0,1.0,95,-99.99,,,-99.99,,2013-02-13 02:52:00,
2013-02-12 21:01:00,33.0,32.0,-100.00,NNW,330,1.0,1.0,96,-99.99,,,-99.99,,2013-02-13 03:01:00,
2013-02-12 21:11:00,33.0,32.0,-100.00,NNE,30,0.0,1.0,96,-99.99,,,-99.99,,2013-02-13 03:11:00,
2013-02-12 21:21:00,33.0,32.0,-100.00,NNE,30,0.0,1.0,96,-99.99,,,-99.99,,2013-02-13 03:21:00,
2013-02-12 21:32:00,33.0,32.0,-100.00,NNE,30,0.0,1.0,97,-99.99,,,-99.99,,2013-02-13 03:32:00,
2013-02-12 21:42:00,33.0,32.0,-100.00,SSW,195,0.0,1.0,97,-99.99,,,-99.99,,2013-02-13 03:42:00,
2013-02-12 21:51:00,33.0,32.0,-100.00,SSW,195,0.0,1.0,97,-99.99,,,-99.99,,2013-02-13 03:51:00,
2013-02-12 22:01:00,32.0,31.0,-100.00,West,270,1.0,1.0,97,-99.99,,,-99.99,,2013-02-13 04:01:00,
2013-02-12 22:11:00,32.0,31.0,-100.00,WNW,300,0.0,1.0,97,-99.99,,,-99.99,,2013-02-13 04:11:00,
2013-02-12 22:21:00,32.0,31.0,-100.00,WNW,300,0.0,1.0,97,-99.99,,,-99.99,,2013-02-13 04:21:00,
2013-02-12 22:32:00,33.0,32.0,-100.00,North,350,0.0,0.0,98,-99.99,,,-99.99,,2013-02-13 04:32:00,
2013-02-12 22:41:00,33.0,32.0,-100.00,NE,40,0.0,1.0,98,-99.99,,,-99.99,,2013-02-13 04:41:00,
2013-02-12 22:51:00,33.0,32.0,-100.00,NE,40,0.0,1.0,98,-99.99,,,-99.99,,2013-02-13 04:51:00,
2013-02-12 23:00:00,33.0,32.0,-100.00,South,175,0.0,1.0,98,-99.99,,,-99.99,,2013-02-13 05:00:00,
2013-02-12 23:01:00,33.0,32.0,-100.00,SSE,155,0.0,1.0,98,-99.99,,,-99.99,,2013-02-13 05:01:00,
2013-02-12 23:11:00,33.0,32.0,-100.00,South,180,0.0,1.0,98,-99.99,,,-99.99,,2013-02-13 05:11:00,
2013-02-12 23:22:00,33.0,32.0,-100.00,South,180,0.0,1.0,98,-99.99,,,-99.99,,2013-02-13 05:22:00,
2013-02-12 23:31:00,33.0,32.0,-100.00,SW,230,0.0,1.0,98,-99.99,,,-99.99,,2013-02-13 05:31:00,
2013-02-12 23:42:00,33.0,32.0,-100.00,South,175,0.0,1.0,98,-99.99,,,-99.99,,2013-02-13 05:42:00,
2013-02-12 23:52:00,33.0,32.0,-100.00,South,175,0.0,1.0,98,-99.99,,,-99.99,,2013-02-13 05:52:00,